RSP-01

Last updated on Fri Jun 10 2022 00:02:06 GMT+0000 (Coordinated Universal Time)

1 47925U 98067SB 22159.97733955 .03925807 12084-4 94924-3 0 9998 2 47925 51.6203 339.3535 0014703 285.6985 74.2415 16.28293158 70538

Satellite not in orbit